Zurück zum Katalog

SJ-25

AktivWissenschaftGEO
NORAD 62485·PAYLOAD·🇨🇳 China

Gestartet Jan 6, 2025 von Xichang Satellite Launch Center

Loading…

TLE

AktuellSource: Space-Track

Epoche: Sep 14, 2026, 13:45 UTC

1 62485U 25002A   26257.57323198 -.00000355  00000-0  00000+0 0  9997
2 62485   5.3216  60.5557 0046719 179.5948  87.1500  1.00280793  6256

Verfolge SJ-25 in Echtzeit mit AllMySat

Download on the App Store